Voltar ao catálogo

GIOVE-B

AtivoNavegaçãoMEO
NORAD 32781·PAYLOAD·🇪🇺 EU

Lançado Apr 27, 2008 de Baikonur Cosmodrome

Loading…

Próximas Passagens (próximas 24 horas)

TLE

AtualizadoSource: Space-Track

Época: Sep 11, 2026, 15:40 UTC

1 32781U 08020A   26254.65338624 -.00000071  00000-0  00000-0 0  9996
2 32781  60.0734  35.9481 0003055 251.9264 108.0248  1.65405067111870

Acompanhe GIOVE-B em tempo real com AllMySat

Download on the App Store